CZ-6A DEB

Satellite information

Favourite Embed

Satellite Type and Status

DEBRISIN ORBIT

Key statistics

Satellite CZ-6A DEB at a glance.

Uptime

967

Days in orbit

Revolutions

≈ 14.3

Per day

Orbit

SSO

Sun Synchronous Orbit

Inclination

98.7

Latest

Satellite identification and parameters

Extended collection of information and parameters for CZ-6A DEB.

Object identification

Identified? True

Debris? True

Object name: CZ-6A DEB

International designator: 2022-151KF

Object number (NORAD): 54527

Object ID (CCSDS): 54527

Country: PEOPLES REPUBLIC OF CHINA (PRC)

Current information (Y/N): Y

RCS size: MEDIUM

Orbital parameters

Period: 100.696 minutes

Inclination: 98.744 deg

SMA: 7169.733 km

Apoapsis: 817.211 km

Periapsis: 765.985 km

RAAN: 205.0482 deg

Eccentricy: 0.0035724

Argument of periapsis: 265.1212 deg

Mean anomaly: 94.5891 deg

Mean motion: 14.30040398 rev/day

Mean motion (dot): 0.00001835 rev/day2

B* drag term: 0.00072314 1/REarth

Two-line elements (TLE)

Creation date: July 4, 2025, 6:39 p.m.

Reference frame: TEME

Reference center: EARTH

Epoch: July 4, 2025, 1:34 p.m. UTC

TLE line 0: 0 CZ-6A DEB

TLE line 1: 1 54527U 22151KF 25185.56571487 .00001835 00000-0 72314-3 0 9995

TLE line 2: 2 54527 98.7440 205.0482 0035724 265.1212 94.5891 14.30040398137221

Live tracking on map

Real-time ground track for satellite CZ-6A DEB.

In-orbit conjunctions

A list of the most updated potential collisions computed for object CZ-6A DEB.

Target Orbit TCA Probability of collision Miss distance Type
NOAA 16 DEB SSO 2025-06-01 12:30:17 0.0001461472 165.0 (m) DEBRIS
DELTA 1 DEB * SSO 2024-12-03 17:18:33 0.0005065937 34.0 (m) DEBRIS
COSMOS 468 LEO 2024-11-15 01:55:21 0.0002606579 447.0 (m) PAYLOAD

Associated space launch

Chinese satellite reported for atmospheric/ocean/environmental/spatial parameter research purposes, details TBD.

CZ-6A DEB was lifted into orbit during the mission ‘Long March 6A | Yunhai 3’, on board a Long March 6A space rocket.

The launch took place on Nov. 11, 2022, 10:52 p.m. from Launch Complex 9A.

For more information about the launch, click the button.

Launch to space Long March 6A | Yunhai 3
Long March 6A | Yunhai 3

Agency: N/A

Status: Launch Successful

Launch date: Nov. 11, 2022, 10:52 p.m. UTC

Rocket: Long March 6A

Launch pad: Launch Complex 9A

Location: Taiyuan Satellite Launch Center, People's Republic of China

...

Latest news about this satellite

There are no fresh news available about this satellite. Check back as we update our databases every day.


Newsletter sign-up

Weekly statistics, charts and insights to help you stay on top of the space industry.